Regional Weather Roundup
Issued by NWS

Home | Current Version | Previous Version | Graphics & Text | Print | Product List | Glossary On
Versions: 1 2 3 4 5 6 7 8 9 10 11 12 13 14 15 16 17 18 19 20 21 22 23 24 25 26 27 28 29 30 31 32 33 34 35 36 37 38 39 40 41 42 43 44 45 46 47 48 49 50
000
ASUS44 KMEG 291610
RWRTN
TENNESSEE HOURLY STATE WEATHER ROUNDUP
NATIONAL WEATHER SERVICE MEMPHIS TN
1100 AM CDT SUN MAR 29 2015

TNZ002-004-019-021-049-052-054-088>092-291700-
WEST TENNESSEE

CITY           SKY/WX    TMP DP  RH WIND       PRES   REMARKS
MEMPHIS INTL   CLOUDY    50  29  44 SE10G22   30.24F
NWS MEMPHIS      N/A     49 N/A N/A MISG        N/A
JACKSON        MOSUNNY   52  20  28 SE9G22    30.26F
DYERSBURG      SUNNY     52  21  30 S12G21    30.26S
UNION CITY     SUNNY     50  27  40 S18       30.23F
PARIS          SUNNY     48  18  29 S13       30.25F
LEXINGTON      SUNNY     50  16  25 S12       30.28S
SAVANNAH       SUNNY     50  21  32 S8        30.30F
$$

TNZ008-025-027-028-033-062-065-066-291700-
NORTH MIDDLE TENNESSEE

CITY           SKY/WX    TMP DP  RH WIND       PRES   REMARKS
NASHVILLE      SUNNY     49  14  24 SE13G18   30.31F
CLARKSVILLE    SUNNY     49  18  29 S15       30.27F
SMYRNA         SUNNY     49  17  28 S10G18    30.33F
COOKEVILLE     SUNNY     46  18  31 S9        30.32F
CROSSVILLE     SUNNY     44   9  23 S8        30.32F
$$

TNZ061-075-076-078-094-096-097-291700-
SOUTH MIDDLE TENNESSEE

CITY           SKY/WX    TMP DP  RH WIND       PRES   REMARKS
FAYETTEVILLE   SUNNY     46  14  27 S12       30.32F
TULLAHOMA      SUNNY     46  12  25 S9        30.32F
MCMINNVILLE    SUNNY     50  16  25 S8        30.32F
COLUMBIA       SUNNY     50  19  29 SE10      30.29F
SHELBYVILLE    SUNNY     50  18  27 S13       30.33F
$$

TNZ017-018-042-046-047-291700-
NORTHEAST TENNESSEE

CITY           SKY/WX    TMP DP  RH WIND       PRES   REMARKS
TRI CITIES     SUNNY     41   8  25 NW6       30.36F
ELIZABETHTON   SUNNY     43   1  17 CALM      30.34F
$$

TNZ012-013-036-069-073-074-291700-
CENTRAL EAST TENNESSEE

CITY           SKY/WX    TMP DP  RH WIND       PRES   REMARKS
KNOXVILLE      SUNNY     42  14  32 CALM      30.38F
OAK RIDGE      SUNNY     44  14  29 CALM      30.39F
GATLINBURG     SUNNY     41  16  36 NE3       30.36F
MORRISTOWN     SUNNY     43  18  36 VRB6      30.35F
$$

TNZ083-085-099-291700-
SOUTHEAST TENNESSEE

CITY           SKY/WX    TMP DP  RH WIND       PRES   REMARKS
CHATTANOOGA    SUNNY     48  17  29 VRB3      30.38F
$$

SKY/WX REPORTED AS FAIR MEANS FEW OR NO CLOUDS BELOW
12 THOUSAND FEET.




USA.gov is the U.S. government's official web portal to all federal, state and local government web resources and services.